Weather in Kurmach-Baygol

Russia / Altai Republic     52°07′36″N   87°39′31″E
temp.,
°C
wind,
m/s
gust,
m/s
humid.,
%
clouds,
%
prec.,
mm/h
press.,
hPa
HPBL,
m
10 may, mon
mon1001:00+6n147954 0.0 1016146
04:00+2nne23964 0.0 101861
07:00+5nne128675 0.0 1019170
10:00+11ne34544 0.0 1017997
13:00+15ne56381 0.0 10141579
16:00+17ne66301 0.0 10132054
19:00+12ne7124896 0.0 1012813
22:00+6ne376750 0.0 1012239
11 may, tue
tue1101:00+3ne238564 0.0 101244
04:00+3ne1187100 0.0 101225
07:00+4ne127887 0.0 1013125
10:00+12sse015298 0.1 1012678
13:00+13sse215899 0.3 10121023
16:00+15ssw2251100 0.1 10111547
19:00+13wnw1161100 0.1 101254
22:00+8sw1174100 0.0 101413
12 may, wed
wed1201:00+7s0180100 0.0 101411
04:00+6e0086100 0.0 101410
07:00+7ene1180100 0.0 101580
10:00+13nnw1550100 0.0 10141475
13:00+14nne2444100 0.1 10131920
16:00+13e1357100 0.3 10141197
19:00+10ese2385100 1.8 1016104
22:00+8se1192100 0.6 101813
13 may, thu
thu1301:00+7s119496 0.7 101913
04:00+6sw119489 0.1 101919
07:00+8wsw019193 0.2 101983
10:00+12wnw117039 0.1 1018624
13:00+17n114038 0.4 10162098
16:00+16nne3240100 0.0 10151911
19:00+15n13548 0.0 1015307
22:00+8ene11725 0.0 101610
14 may, fri
fri1401:00+6ese11815 0.0 101710
04:00+4se11888 0.0 101610
07:00+7nw0176100 0.0 101668
10:00+10wsw3469100 0.2 1015731
13:00+8ssw2592100 2.4 1016421
16:00+8sw279292 1.1 1018654
19:00+8wsw389368 6.8 1019456
22:00+7sw229375 1.3 102231